Weather History for Santa Fe, NM

Change the Weather History Date:

Wednesday, August 21, 2013

  Actual Average Record
Temperature  
Mean Temperature 72 °F -  
Max Temperature 88 °F 84 °F 96 °F (2007)
Min Temperature 57 °F 45 °F 45 °F (1980)
Cooling Degree Days 6    
Growing Degree Days 22 (Base 50)    
Moisture  
Dew Point 50 °F    
Average Humidity 50    
Maximum Humidity 84    
Minimum Humidity 23    
Precipitation  
Precipitation 0.00 in - - ()
Sea Level Pressure  
Sea Level Pressure 29.93 in    
Wind  
Wind Speed 4 mph (South)    
Max Wind Speed 14 mph    
Max Gust Speed 23 mph    
Visibility 10 miles    
Events      
Averages and records for this station are not official NWS values.
T = Trace of Precipitation, MM = Missing Value Source: NWS Daily Summary

Daily Weather History Graph

Daily Weather History Graph

Search for Another Location

Airport:

Trip Planner

Search our weather history database for the weather conditions in past years. The results will help you decide how hot, cold, wet, or windy it might be!

Date:

Astronomy

Aug. 21, 2013 Rise Set
Actual Time 6:28 AM MDT 7:45 PM MDT
Civil Twilight 6:01 AM MDT 8:12 PM MDT
Nautical Twilight 5:29 AM MDT 8:44 PM MDT
Astronomical Twilight 4:56 AM MDT 9:17 PM MDT
Moon 8:00 PM MDT (8/21) 7:08 AM MDT (8/21)
Length of Visible Light 14h 10m
Length of Day
13h 17m
Full, 99% of the Moon is Illuminated
Aug 21
Full
Aug 28
Last Quarter
Sep 5
New
Sep 12
First Quarter
Sep 19
Full

Hourly Weather History & Observations

Time (MDT) Temp. Dew Point Humidity Pressure Visibility Wind Dir Wind Speed Gust Speed Precip Events Conditions
12:53 AM 64.9 °F 55.0 °F 70% 29.91 in 10.0 mi Calm Calm - N/A   Clear
1:53 AM 63.0 °F 54.0 °F 72% 29.91 in 10.0 mi Calm Calm - N/A   Clear
2:53 AM 61.0 °F 55.0 °F 81% 29.91 in 10.0 mi North 3.5 mph - N/A   Clear
3:53 AM 59.0 °F 54.0 °F 83% 29.97 in 10.0 mi North 4.6 mph - N/A   Clear
4:53 AM 60.1 °F 53.1 °F 78% 29.97 in 10.0 mi NE 5.8 mph - N/A   Clear
5:53 AM 57.0 °F 52.0 °F 83% 29.99 in 10.0 mi North 5.8 mph - N/A   Clear
6:53 AM 57.9 °F 53.1 °F 84% 29.99 in 10.0 mi NE 4.6 mph - N/A   Clear
7:53 AM 63.0 °F 55.9 °F 78% 29.99 in 10.0 mi Calm Calm - N/A   Clear
8:53 AM 71.1 °F 55.0 °F 57% 29.98 in 10.0 mi Calm Calm - N/A   Clear
9:53 AM 73.0 °F 54.0 °F 51% 29.98 in 10.0 mi Calm Calm - N/A   Clear
10:53 AM 77.0 °F 53.1 °F 43% 29.97 in 10.0 mi SSE 3.5 mph - N/A   Clear
11:53 AM 80.1 °F 51.1 °F 36% 29.95 in 10.0 mi Calm Calm - N/A   Clear
12:53 PM 82.0 °F 50.0 °F 33% 29.93 in 10.0 mi WSW 4.6 mph - N/A   Clear
1:53 PM 84.9 °F 48.0 °F 28% 29.91 in 10.0 mi WSW 5.8 mph 18.4 mph N/A   Clear
2:53 PM 86.0 °F 46.9 °F 26% 29.88 in 10.0 mi South 8.1 mph 18.4 mph N/A   Clear
3:53 PM 86.0 °F 50.0 °F 29% 29.87 in 10.0 mi West 13.8 mph 23.0 mph N/A   Clear
4:53 PM 84.9 °F 48.0 °F 28% 29.87 in 10.0 mi SW 5.8 mph - N/A   Mostly Cloudy
5:53 PM 84.0 °F 46.9 °F 27% 29.88 in 10.0 mi SSW 10.4 mph - N/A   Partly Cloudy
6:53 PM 82.9 °F 41.0 °F 23% 29.88 in 10.0 mi South 12.7 mph - N/A   Clear
7:53 PM 80.1 °F 42.1 °F 26% 29.90 in 10.0 mi South 6.9 mph - N/A   Mostly Cloudy
8:53 PM 77.0 °F 48.0 °F 36% 29.91 in 10.0 mi SSE 8.1 mph - N/A   Scattered Clouds
9:53 PM 73.0 °F 48.9 °F 42% 29.95 in 10.0 mi SE 6.9 mph - N/A   Clear
10:53 PM 73.0 °F 46.0 °F 38% 29.95 in 10.0 mi ESE 9.2 mph - N/A   Clear
11:53 PM 72.0 °F 45.0 °F 38% 29.95 in 10.0 mi ESE 13.8 mph - N/A   Clear